When you browse on this site, cookies collect data to enhance your experience and personalize the content and advertising you see.
Visit our Privacy Policy to learn more. By continuing to use the site, you agree to this use of cookies and data.
  • In Hungary
  • List of Countries
  • For 7 days
  • Water Temperature
  • Satellite Maps
  • Weather Map
  • News
  • Weather Widgets
  • user-avatar
    Login

    Hourly Weather Ponferrada

    Today, 16 November, Friday

    Time Temperature Precipitation Wind Pressure Humidity
    00:00 +12°C° 0 mm 2 mps 715 mmHg 90%
    01:00 +10°C° 0 mm 2 mps 714 mmHg 91%
    02:00 +10°C° 0 mm 2 mps 714 mmHg 92%
    03:00 +10°C° 0 mm 2 mps 714 mmHg 92%
    04:00 +10°C° 0 mm 2 mps 714 mmHg 93%
    05:00 +9°C° 0 mm 2 mps 714 mmHg 93%
    06:00 +9°C° 0 mm 2 mps 714 mmHg 93%
    07:00 +10°C° 0 mm 2 mps 714 mmHg 91%
    08:00 +12°C° 0 mm 2 mps 714 mmHg 88%
    09:00 +13°C° 0 mm 2 mps 714 mmHg 86%
    10:00 +14°C° 0 mm 2 mps 714 mmHg 80%
    11:00 +15°C° 0 mm 2 mps 714 mmHg 75%
    12:00 +17°C° 0 mm 2 mps 714 mmHg 69%
    13:00 +17°C° 0 mm 2 mps 714 mmHg 69%
    14:00 +17°C° 0 mm 2 mps 714 mmHg 69%
    15:00 +17°C° 0 mm 2 mps 713 mmHg 70%
    16:00 +16°C° 0 mm 2 mps 713 mmHg 76%
    17:00 +14°C° 0 mm 2 mps 713 mmHg 81%
    18:00 +13°C° 0 mm 2 mps 713 mmHg 87%
    19:00 +13°C° 0 mm 2 mps 713 mmHg 88%
    20:00 +12°C° 0 mm 2 mps 713 mmHg 89%
    21:00 +12°C° 0 mm 2 mps 713 mmHg 90%
    22:00 +12°C° 0 mm 2 mps 712 mmHg 91%
    23:00 +12°C° 0 mm 2 mps 712 mmHg 91%

    Tomorrow, 17 November, Saturday

    Time Temperature Precipitation Wind Pressure Humidity
    00:00 +12°C° 0 mm 2 mps 712 mmHg 92%
    01:00 +10°C° 0 mm 2 mps 712 mmHg 92%
    02:00 +10°C° 0 mm 2 mps 712 mmHg 93%
    03:00 +10°C° 0 mm 2 mps 712 mmHg 93%
    04:00 +10°C° 0 mm 2 mps 712 mmHg 93%
    05:00 +10°C° 0 mm 2 mps 711 mmHg 94%
    06:00 +10°C° 0 mm 2 mps 711 mmHg 94%
    07:00 +12°C° 0 mm 2 mps 711 mmHg 91%
    08:00 +12°C° 0 mm 2 mps 711 mmHg 89%
    09:00 +13°C° 0 mm 2 mps 711 mmHg 86%
    10:00 +14°C° 0 mm 2 mps 711 mmHg 80%
    11:00 +14°C° 0 mm 3 mps 711 mmHg 74%
    12:00 +16°C° 0 mm 3 mps 711 mmHg 67%
    13:00 +16°C° 0 mm 3 mps 711 mmHg 66%
    14:00 +17°C° 0 mm 2 mps 710 mmHg 66%
    15:00 +17°C° 0 mm 2 mps 710 mmHg 65%
    16:00 +15°C° 0 mm 2 mps 709 mmHg 72%
    17:00 +14°C° 0 mm 2 mps 709 mmHg 79%
    18:00 +12°C° 0 mm 2 mps 709 mmHg 86%
    19:00 +12°C° 0 mm 2 mps 708 mmHg 86%
    20:00 +10°C° 0 mm 2 mps 708 mmHg 87%
    21:00 +10°C° 0 mm 2 mps 708 mmHg 88%
    22:00 +10°C° 0 mm 2 mps 708 mmHg 88%
    23:00 +10°C° 0 mm 2 mps 707 mmHg 89%

    Day after tomorrow, 18 November, Sunday

    Time Temperature Precipitation Wind Pressure Humidity
    00:00 +10°C° 0 mm 2 mps 707 mmHg 89%
    01:00 +10°C° 0 mm 2 mps 707 mmHg 89%
    02:00 +10°C° 0 mm 2 mps 706 mmHg 90%
    03:00 +9°C° 0 mm 2 mps 706 mmHg 90%
    04:00 +10°C° 0 mm 2 mps 706 mmHg 90%
    05:00 +10°C° 0 mm 2 mps 706 mmHg 90%
    06:00 +10°C° 0 mm 2 mps 705 mmHg 90%
    07:00 +10°C° 0 mm 2 mps 705 mmHg 87%
    08:00 +12°C° 0 mm 2 mps 705 mmHg 85%
    09:00 +12°C° 0 mm 2 mps 705 mmHg 83%
    10:00 +14°C° 0 mm 2 mps 705 mmHg 78%
    11:00 +15°C° 0 mm 2 mps 705 mmHg 73%
    12:00 +16°C° 0 mm 2 mps 704 mmHg 68%
    13:00 +16°C° 0.1 mm 1 mps 704 mmHg 70%
    14:00 +15°C° 0.1 mm 1 mps 703 mmHg 72%
    15:00 +15°C° 0.1 mm 1 mps 703 mmHg 75%
    16:00 +14°C° 0.3 mm 1 mps 703 mmHg 80%
    17:00 +13°C° 0.3 mm 1 mps 703 mmHg 86%
    18:00 +12°C° 0.3 mm 1 mps 703 mmHg 91%
    19:00 +12°C° 0.7 mm 1 mps 703 mmHg 92%
    20:00 +11°C° 0.7 mm 1 mps 703 mmHg 93%
    21:00 +11°C° 0.7 mm 1 mps 703 mmHg 94%
    22:00 +11°C° 0.8 mm 1 mps 703 mmHg 94%
    23:00 +11°C° 0.8 mm 1 mps 703 mmHg 94%

    19 November, Monday

    Time Temperature Precipitation Wind Pressure Humidity
    00:00 +11°C° 0.8 mm 1 mps 703 mmHg 94%
    01:00 +11°C° 0.1 mm 1 mps 704 mmHg 94%
    02:00 +11°C° 0.1 mm 1 mps 704 mmHg 94%
    03:00 +10°C° 0.1 mm 1 mps 704 mmHg 94%
    04:00 +10°C° 0 mm 1 mps 704 mmHg 94%
    05:00 +10°C° 0 mm 1 mps 704 mmHg 94%
    06:00 +10°C° 0 mm 1 mps 705 mmHg 94%
    07:00 +10°C° 0 mm 1 mps 705 mmHg 92%
    08:00 +11°C° 0 mm 1 mps 706 mmHg 91%
    09:00 +11°C° 0 mm 1 mps 706 mmHg 89%
    10:00 +12°C° 0 mm 1 mps 706 mmHg 84%
    11:00 +14°C° 0 mm 1 mps 706 mmHg 79%
    12:00 +15°C° 0 mm 1 mps 706 mmHg 74%
    13:00 +15°C° 0 mm 1 mps 706 mmHg 72%
    14:00 +15°C° 0 mm 1 mps 706 mmHg 71%
    15:00 +15°C° 0 mm 1 mps 706 mmHg 69%
    16:00 +14°C° 0 mm 1 mps 706 mmHg 75%
    17:00 +12°C° 0 mm 1 mps 706 mmHg 82%
    18:00 +11°C° 0 mm 1 mps 706 mmHg 88%
    19:00 +11°C° 0 mm 1 mps 707 mmHg 89%
    20:00 +11°C° 0 mm 1 mps 707 mmHg 90%
    21:00 +10°C° 0 mm 1 mps 707 mmHg 91%
    22:00 +10°C° 0 mm 1 mps 708 mmHg 92%
    23:00 +10°C° 0 mm 1 mps 708 mmHg 92%

    20 November, Tuesday

    Time Temperature Precipitation Wind Pressure Humidity
    00:00 +10°C° 0 mm 1 mps 708 mmHg 93%
    01:00 +10°C° 0 mm 1 mps 708 mmHg 93%
    02:00 +9°C° 0 mm 1 mps 708 mmHg 94%
    03:00 +9°C° 0 mm 1 mps 708 mmHg 94%
    04:00 +9°C° 0 mm 1 mps 708 mmHg 94%
    05:00 +9°C° 0 mm 1 mps 708 mmHg 94%
    06:00 +9°C° 0 mm 1 mps 708 mmHg 94%
    07:00 +10°C° 0 mm 1 mps 708 mmHg 92%
    08:00 +10°C° 0 mm 1 mps 709 mmHg 90%
    09:00 +10°C° 0 mm 2 mps 709 mmHg 88%
    10:00 +12°C° 0 mm 2 mps 709 mmHg 83%
    11:00 +13°C° 0 mm 2 mps 710 mmHg 78%
    12:00 +14°C° 0 mm 2 mps 710 mmHg 73%
    13:00 +12°C° 0.1 mm 3 mps 710 mmHg 73%
    14:00 +12°C° 0.1 mm 3 mps 710 mmHg 73%
    15:00 +12°C° 0.1 mm 3 mps 709 mmHg 73%
    16:00 +12°C° 0 mm 2 mps 710 mmHg 78%
    17:00 +9°C° 0 mm 2 mps 710 mmHg 83%
    18:00 +8°C° 0 mm 2 mps 710 mmHg 88%
    19:00 +8°C° 0 mm 2 mps 710 mmHg 89%
    20:00 +7°C° 0 mm 2 mps 711 mmHg 90%
    21:00 +8°C° 0 mm 1 mps 711 mmHg 91%
    22:00 +8°C° 0 mm 1 mps 711 mmHg 91%
    23:00 +7°C° 0 mm 1 mps 711 mmHg 92%

    21 November, Wednesday

    Time Temperature Precipitation Wind Pressure Humidity
    00:00 +7°C° 0 mm 1 mps 711 mmHg 92%
    01:00 +7°C° 0 mm 1 mps 711 mmHg 92%
    02:00 +7°C° 0 mm 1 mps 711 mmHg 92%
    03:00 +7°C° 0 mm 1 mps 711 mmHg 92%
    04:00 +7°C° 0.1 mm 1 mps 711 mmHg 92%
    05:00 +7°C° 0.1 mm 1 mps 711 mmHg 92%
    06:00 +7°C° 0.1 mm 1 mps 711 mmHg 91%
    07:00 +8°C° 0.1 mm 1 mps 711 mmHg 89%
    08:00 +8°C° 0.1 mm 1 mps 711 mmHg 88%
    09:00 +9°C° 0.1 mm 1 mps 711 mmHg 86%
    10:00 +8°C° 0.3 mm 2 mps 711 mmHg 82%
    11:00 +9°C° 0.3 mm 2 mps 711 mmHg 78%
    12:00 +10°C° 0.3 mm 2 mps 711 mmHg 74%
    13:00 +10°C° 0.1 mm 2 mps 711 mmHg 73%
    14:00 +10°C° 0.1 mm 2 mps 711 mmHg 71%
    15:00 +9°C° 0.1 mm 2 mps 711 mmHg 70%
    16:00 +8°C° 0 mm 2 mps 711 mmHg 75%
    17:00 +7°C° 0 mm 2 mps 711 mmHg 81%
    18:00 +7°C° 0 mm 1 mps 711 mmHg 86%
    19:00 +7°C° 0.1 mm 1 mps 711 mmHg 88%
    20:00 +6°C° 0.1 mm 1 mps 711 mmHg 90%
    21:00 +6°C° 0.1 mm 1 mps 711 mmHg 92%
    22:00 +6°C° 0 mm 1 mps 711 mmHg 92%
    23:00 +5°C° 0 mm 1 mps 711 mmHg 93%
    Show more